TimeCST,TemperatureF,Dew PointF,Humidity,Sea Level PressureIn,VisibilityMPH,Wind Direction,Wind SpeedMPH,Gust SpeedMPH,PrecipitationIn,Events,Conditions,WindDirDegrees,DateUTC
12:14 AM,-2.2,-5.8,85,29.84,7.0,Calm,Calm,-,N/A,,Clear,0,2013-12-21 06:14:00
12:34 AM,-2.2,-7.6,78,29.84,10.0,Calm,Calm,-,N/A,,Clear,0,2013-12-21 06:34:00
12:54 AM,-4.0,-7.6,85,29.84,10.0,Calm,Calm,-,N/A,,Clear,0,2013-12-21 06:54:00
1:14 AM,-4.0,-9.4,78,29.84,10.0,Calm,Calm,-,N/A,,Clear,0,2013-12-21 07:14:00
1:34 AM,-4.0,-9.4,78,29.84,10.0,Calm,Calm,-,N/A,,Clear,0,2013-12-21 07:34:00
1:54 AM,-7.6,-11.2,84,29.85,10.0,Calm,Calm,-,N/A,,Clear,0,2013-12-21 07:54:00
2:14 AM,-5.8,-11.2,77,29.84,7.0,Calm,Calm,-,N/A,,Clear,0,2013-12-21 08:14:00
2:34 AM,-7.6,-13.0,77,29.85,10.0,Calm,Calm,-,N/A,,Clear,0,2013-12-21 08:34:00
2:54 AM,-7.6,-13.0,77,29.87,7.0,Calm,Calm,-,N/A,,Clear,0,2013-12-21 08:54:00
3:14 AM,-7.6,-13.0,77,29.87,10.0,Calm,Calm,-,N/A,,Clear,0,2013-12-21 09:14:00
3:34 AM,-9.4,-16.6,71,29.88,10.0,Calm,Calm,-,N/A,,Clear,0,2013-12-21 09:34:00
3:54 AM,-7.6,-13.0,77,29.87,10.0,Calm,Calm,-,N/A,,Scattered Clouds,0,2013-12-21 09:54:00
4:14 AM,-5.8,-9.4,84,29.87,10.0,North,3.5,-,N/A,,Clear,350,2013-12-21 10:14:00
4:34 AM,-5.8,-9.4,84,29.87,10.0,North,3.5,-,N/A,,Clear,350,2013-12-21 10:34:00
4:54 AM,-5.8,-9.4,84,29.87,10.0,NNW,4.6,-,N/A,,Clear,340,2013-12-21 10:54:00
5:14 AM,-5.8,-11.2,77,29.88,10.0,Calm,Calm,-,N/A,,Clear,0,2013-12-21 11:14:00
5:34 AM,-5.8,-11.2,77,29.90,10.0,Calm,Calm,-,N/A,Snow,Light Snow,0,2013-12-21 11:34:00
5:54 AM,-5.8,-9.4,84,29.90,10.0,NNW,3.5,-,N/A,,Clear,340,2013-12-21 11:54:00
6:13 AM,-5.8,-11.2,77,29.91,10.0,NNW,3.5,-,N/A,,Clear,340,2013-12-21 12:13:00
6:34 AM,-5.8,-9.4,84,29.92,10.0,NNW,4.6,-,N/A,,Clear,340,2013-12-21 12:34:00
6:54 AM,-5.8,-9.4,84,29.92,10.0,North,6.9,-,N/A,,Clear,360,2013-12-21 12:54:00
7:14 AM,-5.8,-9.4,84,29.93,10.0,North,6.9,-,N/A,,Clear,360,2013-12-21 13:14:00
7:34 AM,-5.8,-9.4,84,29.94,10.0,North,6.9,-,N/A,,Clear,10,2013-12-21 13:34:00
7:54 AM,-5.8,-11.2,77,29.94,10.0,North,6.9,-,N/A,,Clear,10,2013-12-21 13:54:00
8:14 AM,-5.8,-9.4,84,29.96,10.0,North,6.9,-,N/A,,Clear,360,2013-12-21 14:14:00
8:34 AM,-5.8,-11.2,77,29.96,10.0,North,6.9,-,N/A,,Clear,360,2013-12-21 14:34:00
8:54 AM,-5.8,-9.4,84,29.98,10.0,North,5.8,-,N/A,,Clear,360,2013-12-21 14:54:00
9:13 AM,-5.8,-9.4,84,30.00,10.0,North,6.9,-,N/A,,Clear,10,2013-12-21 15:13:00
9:34 AM,-4.0,-9.4,78,30.01,10.0,North,5.8,-,N/A,,Clear,10,2013-12-21 15:34:00
9:54 AM,-4.0,-9.4,78,30.03,10.0,North,4.6,-,N/A,,Clear,10,2013-12-21 15:54:00
10:14 AM,-2.2,-7.6,78,30.04,10.0,North,8.1,-,N/A,,Clear,10,2013-12-21 16:14:00
10:34 AM,-2.2,-7.6,78,30.05,10.0,NNE,8.1,-,N/A,,Clear,30,2013-12-21 16:34:00
10:54 AM,-2.2,-7.6,78,30.05,10.0,NNE,8.1,-,N/A,,Clear,20,2013-12-21 16:54:00
11:14 AM,-2.2,-7.6,78,30.05,10.0,North,9.2,-,N/A,,Clear,10,2013-12-21 17:14:00
11:34 AM,-0.4,-5.8,78,30.05,10.0,North,10.4,-,N/A,,Clear,10,2013-12-21 17:34:00
11:54 AM,-0.4,-5.8,78,30.05,10.0,North,10.4,-,N/A,,Clear,10,2013-12-21 17:54:00
12:14 PM,-0.4,-5.8,78,30.05,10.0,NNE,9.2,-,N/A,,Clear,20,2013-12-21 18:14:00
12:34 PM,1.4,-5.8,72,30.05,10.0,North,10.4,-,N/A,,Clear,360,2013-12-21 18:34:00
12:54 PM,1.4,-5.8,72,30.05,10.0,NNE,6.9,-,N/A,,Clear,20,2013-12-21 18:54:00
1:13 PM,1.4,-5.8,72,30.06,10.0,North,8.1,-,N/A,,Clear,10,2013-12-21 19:13:00
1:34 PM,1.4,-5.8,72,30.06,10.0,NNE,11.5,-,N/A,,Clear,20,2013-12-21 19:34:00
1:54 PM,3.2,-5.8,66,30.06,10.0,NNE,9.2,-,N/A,,Clear,30,2013-12-21 19:54:00
2:14 PM,3.2,-5.8,66,30.06,10.0,North,12.7,-,N/A,,Clear,10,2013-12-21 20:14:00
2:34 PM,3.2,-5.8,66,30.07,10.0,North,11.5,-,N/A,,Clear,10,2013-12-21 20:34:00
2:53 PM,1.4,-7.6,66,30.08,10.0,NNE,8.1,-,N/A,,Clear,20,2013-12-21 20:53:00
3:14 PM,1.4,-7.6,66,30.09,10.0,North,9.2,-,N/A,,Clear,10,2013-12-21 21:14:00
3:34 PM,-0.4,-7.6,72,30.10,10.0,North,9.2,-,N/A,,Clear,10,2013-12-21 21:34:00
3:54 PM,-0.4,-7.6,72,30.11,10.0,North,8.1,-,N/A,,Clear,10,2013-12-21 21:54:00
4:14 PM,-0.4,-7.6,72,30.12,10.0,North,8.1,-,N/A,,Clear,10,2013-12-21 22:14:00
4:34 PM,-0.4,-9.4,66,30.13,10.0,North,6.9,-,N/A,,Clear,10,2013-12-21 22:34:00
4:54 PM,-0.4,-9.4,66,30.14,10.0,NNE,6.9,-,N/A,,Clear,30,2013-12-21 22:54:00
5:14 PM,-0.4,-9.4,66,30.15,10.0,NNE,6.9,-,N/A,,Clear,20,2013-12-21 23:14:00
5:34 PM,-0.4,-9.4,66,30.16,10.0,NNE,8.1,-,N/A,,Clear,20,2013-12-21 23:34:00
5:54 PM,-0.4,-9.4,66,30.17,10.0,NNE,5.8,-,N/A,,Clear,20,2013-12-21 23:54:00
6:00 PM,-0.4,-9.4,66,30.17,10.0,NNE,6.9,-,N/A,,Clear,20,2013-12-22 00:00:00
6:34 PM,-0.4,-9.4,66,30.15,10.0,NNE,10.4,-,N/A,,Clear,20,2013-12-22 00:34:00
6:54 PM,-2.2,-9.4,71,30.13,10.0,North,10.4,-,N/A,,Clear,10,2013-12-22 00:54:00
7:14 PM,-2.2,-9.4,71,30.12,10.0,North,10.4,-,N/A,,Clear,10,2013-12-22 01:14:00
7:34 PM,-2.2,-9.4,71,30.12,10.0,North,11.5,18.4,N/A,,Clear,10,2013-12-22 01:34:00
7:53 PM,-2.2,-9.4,71,30.13,10.0,North,11.5,16.1,N/A,,Clear,10,2013-12-22 01:53:00
8:14 PM,-2.2,-9.4,71,30.15,10.0,NNE,8.1,-,N/A,,Clear,20,2013-12-22 02:14:00
8:34 PM,-4.0,-9.4,78,30.16,10.0,NNE,9.2,-,N/A,,Clear,20,2013-12-22 02:34:00
8:54 PM,-4.0,-11.2,71,30.17,10.0,NNE,6.9,-,N/A,,Clear,20,2013-12-22 02:54:00
9:14 PM,-4.0,-11.2,71,30.18,10.0,NNE,6.9,-,N/A,,Clear,30,2013-12-22 03:14:00
9:34 PM,-5.8,-11.2,77,30.18,10.0,NNE,6.9,-,N/A,,Clear,20,2013-12-22 03:34:00
9:54 PM,-5.8,-11.2,77,30.18,10.0,NNE,6.9,-,N/A,,Clear,20,2013-12-22 03:54:00
10:14 PM,-5.8,-11.2,77,30.17,10.0,NNE,8.1,-,N/A,,Clear,20,2013-12-22 04:14:00
10:34 PM,-5.8,-11.2,77,30.17,10.0,NNE,6.9,-,N/A,,Clear,20,2013-12-22 04:34:00
10:54 PM,-5.8,-11.2,77,30.17,10.0,NNE,8.1,-,N/A,,Clear,20,2013-12-22 04:54:00
11:14 PM,-5.8,-11.2,77,30.16,10.0,North,9.2,-,N/A,,Clear,10,2013-12-22 05:14:00
11:34 PM,-5.8,-11.2,77,30.16,10.0,North,9.2,-,N/A,,Clear,10,2013-12-22 05:34:00
11:54 PM,-5.8,-13.0,71,30.16,10.0,NNE,8.1,-,N/A,,Clear,20,2013-12-22 05:54:00